All
Prairie Creek Airport (Leesville, LA) 57LS Weather
There is no TAF data available at 57LS or any nearby airports.
There is no METAR data available at 57LS. Showing METAR data for KDRI (26 mi S).
Recent DRI METAR history (no data for 57LS)
| Date | Time (CDT) | Flight Rules | Wind Dir. | Speed | Type | Height AGL (ft) | Visibility | Temp (°C) | Temp (°F) | Dew Point (°C) | Dew Point (°F) | Rel. Humid. | Pressure | Density Altitude | Remarks |
|---|---|---|---|---|---|---|---|---|---|---|---|---|---|---|---|
| 07-May | 11:55 | VFR | Variable | 6 kt | 10 miles | 18° | 64° | 16° | 60° | 88% | 30.03 in Hg | 451 ft | |||
| 07-May | 11:35 | VFR | 20° | 9 kt | 10 miles | 17° | 62° | 16° | 60° | 93% | 30.03 in Hg | 331 ft | |||
| 07-May | 11:15 | VFR | 20° | 9 kt | 10 miles | 17° | 62° | 16° | 60° | 95% | 30.03 in Hg | 331 ft | |||
| 07-May | 10:55 | VFR | 10° | 7 kt | 10 miles | 16° | 60° | 16° | 60° | 96% | 30.02 in Hg | 221 ft | |||
| 07-May | 10:35 | VFR | 350° | 8 kt | 10 miles | 16° | 60° | 16° | 60° | 99% | 30.04 in Hg | 201 ft | |||
| 07-May | 10:15 | VFR | 340° | 11 kt | 10 miles | 15° | 59° | 15° | 59° | 100% | 30.04 in Hg | 81 ft | |||
| 07-May | 09:55 | VFR | 10° | 7 kt | 10 miles | 15° | 59° | 15° | 59° | 100% | 30.04 in Hg | 81 ft | |||
| 07-May | 09:35 | VFR | 10° | 5 kt | 10 miles | 16° | 60° | 16° | 60° | 100% | 30.03 in Hg | 211 ft | |||
| 07-May | 09:15 | VFR | 350° | 8 kt | 10 miles | 15° | 59° | 15° | 59° | 100% | 30.03 in Hg | 91 ft | |||
| 07-May | 08:55 | VFR | 10° | 9 kt | 10 miles | 15° | 59° | 15° | 59° | 100% | 30.02 in Hg | 101 ft | |||
| 07-May | 08:35 | VFR | Variable | 5 kt | 10 miles | 15° | 59° | 15° | 59° | 100% | 30.02 in Hg | 101 ft | |||
| 07-May | 08:15 | VFR | 50° | 5 kt | 10 miles | 15° | 59° | 15° | 59° | 100% | 30.01 in Hg | 111 ft | |||
| 07-May | 07:55 | VFR | 30° | 5 kt | 10 miles | 14° | 57° | 14° | 57° | 100% | 30.01 in Hg | -9 ft | |||
| 07-May | 07:35 | VFR | 20° | 9 kt | 10 miles | 14° | 57° | 14° | 57° | 100% | 30.01 in Hg | -9 ft | |||
| 07-May | 07:15 | VFR | 10° | 6 kt | 10 miles | 14° | 57° | 14° | 57° | 100% | 30.00 in Hg | 1 ft | |||
| 07-May | 06:55 | VFR | 10° | 5 kt | 10 miles | 14° | 57° | 14° | 57° | 100% | 29.99 in Hg | 11 ft | |||
| 07-May | 06:35 | VFR | 30° | 4 kt | 10 miles | 14° | 57° | 14° | 57° | 100% | 29.97 in Hg | 31 ft | |||
| 07-May | 06:15 | VFR | 50° | 6 kt | 10 miles | 14° | 57° | 14° | 57° | 100% | 29.96 in Hg | 41 ft | |||
| 07-May | 05:55 | VFR | 40° | 6 kt | 10 miles | 14° | 57° | 14° | 57° | 100% | 29.96 in Hg | 41 ft | |||
| 07-May | 05:35 | VFR | 20° | 4 kt | 10 miles | 14° | 57° | 14° | 57° | 100% | 29.97 in Hg | 31 ft | |||
| 07-May | 05:15 | VFR | 360° | 8 kt | 10 miles | 14° | 57° | 14° | 57° | 100% | 29.97 in Hg | 31 ft | |||
| 07-May | 04:55 | VFR | Variable | 6 kt | 10 miles | 14° | 57° | 14° | 57° | 100% | 29.96 in Hg | 41 ft | |||
| 07-May | 04:35 | VFR | 360° | 8 kt | 10 miles | 14° | 57° | 14° | 57° | 100% | 29.96 in Hg | 41 ft | |||
| 07-May | 04:15 | VFR | 10° | 8 kt | 10 miles | 14° | 57° | 14° | 57° | 100% | 29.95 in Hg | 51 ft |
Login
| Your browser is unsupported. upgrade your browser |
